Tracking 25701 objects as of 4-Jul-2022
HD Live streaming from Space Station
objects crossing your sky now

FENGYUN 1C DEB

Track FENGYUN 1C DEB now!
10-day predictions


NORAD ID: 31995
Int'l Code: 1999-025CPY
Perigee: 834.4 km
Apogee: 1,041.6 km
Inclination: 98.4 °
Period: 103.6 minutes
Semi major axis: 7308 km
RCS: 0.0104 m2 (small)
Launch date: May 10, 1999
Source: People's Republic of China (PRC)
Launch site: Taiyaun Space Center, China (TSC)

Note: This is SATELLITE DEBRIS
aabbcc
Your satellite tracking list
Your tracking list is empty




NASA's NSSDC Master Catalog

Two Line Element Set (TLE):
1 31995U 99025CPY 22157.80049262  .00000934  00000-0  73593-3 0  9996
2 31995  98.3856 357.6061 0141720 245.9109 112.7171 13.89373221756211
Source of the keplerian elements: AFSPC